Regional Weather Roundup
Issued by NWS Charleston, SC

Current Version | Previous Version | Graphics & Text | Print | Product List | Glossary On
Versions: 1 2 3 4 5 6 7 8 9 10 11 12 13 14 15 16 17 18 19 20 21 22 23 24 25 26 27 28 29 30 31 32 33 34 35 36 37 38 39 40 41 42 43 44 45 46 47 48 49 50
886
ASUS42 KCHS 201527
RWRCHS

REGIONAL WEATHER ROUNDUP
NATIONAL WEATHER SERVICE CHARLESTON SC
1000 AM EST MON FEB 20 2017

NOTE: "FAIR" INDICATES FEW OR NO CLOUDS BELOW 12,000 FEET WITH NO
SIGNIFICANT WEATHER AND/OR OBSTRUCTIONS TO VISIBILITY.

NOT ALL STATIONS ARE QUALITY CONTROLLED. USE DATA WITH CAUTION...
ESPECIALLY DEWPOINT OBSERVATIONS.

SCZ027-030-031-034>040-042>050-201600-
...SOUTHEAST SOUTH CAROLINA...

CITY           SKY/WX    TMP DP  RH WIND       PRES   REMARKS
N CHARLESTON   MOSUNNY   64  45  49 VRB5      30.20R
WATERFRONT PRK   N/A     61  49  65 N5        30.18R
MOUNT PLEASANT FAIR      64  48  55 CALM      30.21R
JOHNS ISLAND   FAIR      66  48  52 VRB3      30.21R
PINOPOLIS        N/A     57  48  72 VRB2      30.11R
MONCKS CORNER  FAIR      61  46  59 NW5       30.21R
SUMMERVILLE    FAIR      63  45  51 NE5       30.22R
BEAUFORT MCAS  MOSUNNY   66  50  56 NE7       30.20R
BEAUFORT ARPT  FAIR      64  50  59 NE8       30.19S
HILTON HEAD IS SUNNY     68  52  56 E7        30.20R
WALTERBORO     SUNNY     64  45  48 NE7       30.21S
ALLENDALE      FAIR      64  45  48 NE6       30.20S

...SOUTHERN MIDLANDS AND PEE DEE...

CITY           SKY/WX    TMP DP  RH WIND       PRES   REMARKS
GEORGETOWN     FAIR      64  45  48 E5        30.21R
KINGSTREE      FAIR      61  45  55 NE5       30.22R
ORANGEBURG     SUNNY     63  44  50 NE7       30.21S
BARNWELL       FAIR      66  46  48 NE8       30.22R
AIKEN          FAIR      63  45  51 NE9       30.25R
MANNING        FAIR      61  45  55 MISG      30.22R
COLUMBIA       MOSUNNY   63  45  51 NE6       30.21F
SUMTER         SUNNY     63  43  47 NE9       30.20R
FLORENCE       SUNNY     61  44  53 E8        30.21S
MYRTLE BEACH   MOSUNNY   64  45  48 NE10      30.21S
N MYRTLE BEACH MOSUNNY   64  45  49 NE8       30.19S

$$

GAZ063-065-086>088-099>101-113>116-118-119-134>141-150-201600-
...SOUTHEAST GEORGIA...

CITY           SKY/WX    TMP DP  RH WIND       PRES   REMARKS
SAVANNAH ARPT  MOSUNNY   67  48  50 NE5       30.20R
HUNTER AAF     SUNNY     68  52  55 E8        30.17R
FORT STEWART   SUNNY     66  49  55 CALM      30.17R
STATESBORO     SUNNY     65  52  61 NE3       30.20F
SYLVANIA       SUNNY    N/A N/A N/A E7        30.21S
CLAXTON        FAIR      68  54  60 NE3       30.20S

...CSRA...CENTRAL AND FAR SOUTHEAST GEORGIA...

CITY           SKY/WX    TMP DP  RH WIND       PRES   REMARKS
THOMSON        SUNNY     65  51  60 E8        30.26S
AUGUSTA-BUSH   SUNNY     64  48  56 CALM      30.21S
AUGUSTA-DANIEL SUNNY     64  43  46 NE9       30.22R
SWAINSBORO     FAIR      68  46  45 E7        30.20F
VIDALIA        SUNNY     68  55  64 E6        30.20S
EASTMAN        FAIR      69  43  39 E3        30.23R
HAZLEHURST     FAIR      67  56  67 E3        30.19R
ALMA           SUNNY     69  54  58 SE5       30.18S
WAYCROSS       SUNNY     71  57  60 SE6       30.18S
JESUP          FAIR      70  50  49 E7        30.19S
BAXLEY         FAIR      70  55  60 E7        30.18S
BRUNSWICK      SUNNY     72  59  64 E10       30.19S
SAINT SIMONS   SUNNY     70  51  51 E8        30.18R

$$

SCZ027-028-034-036>038-045-046-048>050-GAZ119-141-201600-
...LAKE AND SUPPLEMENTAL COASTAL OBSERVATIONS...

STATION/POSITION TIME  TEMP    WIND        PRES    WAVE   SWELL
                       AIR SEA DIR/SP/G            HT/PER HT/PER/DIR
                 (UTC) (F)     (DEG/KT/KT) (MB)    (FT/S) (FT/S/D)
WINYAH BAY       1445   59      60/ 11     1022.0S
LAKE MURRAY      1450   59      CALM  /  2 1022.7F
ACE BASIN NERRS  1430   63      30/  4     1022.0S
FORT PULASKI     1500   61 60   90/ 11/ 13 1022.6
SAPELO ISLAND    1500   70      50/  6     1022.0

$$

ANZ835-935-AMZ111-154-330-350-352-354-370-450-454-472-201600-
...C-MAN AND BUOY OBSERVATIONS...

STATION/POSITION TIME  TEMP    WIND        PRES    WAVE   SWELL
                       AIR SEA DIR/SP/G            HT/PER HT/PER/DIR
                 (UTC) (F)     (DEG/KT/KT) (MB)    (FT/S) (FT/S/D)
BUOY 41004       1450   64 69   50/ 14/ 16 1021.0F   2/ 3
BUOY 41008       1450   63 62   30/  8/  8 1022.0R   1
FOLLY BEACH CMAN 1500   60      40/  8/  9 1023.2R
CAPERS NEARSHORE 1508   58 59   40/ 10/ 12 1022.5R
FRIPP NEARSHORE  1508   60 60   50/ 10/ 12 1022.3R


STATION/POSITION TIME  TEMP    WIND        PRES    WAVE   SWELL
                       AIR SEA DIR/SP/G            HT/PER HT/PER/DIR
                 (UTC) (F)     (DEG/KT/KT) (MB)    (FT/S) (FT/S/D)
5E ST. MARYS GA  1500      64                N/A     1
FRYING PAN BUOY  1510   60 65   20/ 12/ 16 1022.0
BUOY 41025       1450   59 64   20/ 16/ 21 1021.2R   3/ 4   2/100/ 7
CAPE LOOKOUT NC  1500   61      30/ 15/ 19 1022.3R
BUOY 41002       1450   70 71   30/ 17/ 19 1019.4R   6/ 6
BUOY 41010       NOT AVBL
ST AUGUSTINE FL  1500   64 66   20/  5/  5 1022.7R


$$




USA.gov is the U.S. government's official web portal to all federal, state and local government web resources and services.